CZ-6A DEB

Satellite information

Favourite Embed

Satellite Type and Status

DEBRISIN ORBIT

Key statistics

Satellite CZ-6A DEB at a glance.

Uptime

276

Days in orbit

Revolutions

≈ 14.2

Per day

Orbit

LEO

Low Earth Orbit

Inclination

89.1

Latest

Satellite identification and parameters

Extended collection of information and parameters for CZ-6A DEB.

Object identification

Identified? True

Debris? True

Object name: CZ-6A DEB

International designator: 2024-140LK

Object number (NORAD): 60960

Object ID (CCSDS): 60960

Country: PEOPLES REPUBLIC OF CHINA (PRC)

Current information (Y/N): Y

RCS size: MEDIUM

Orbital parameters

Period: 101.416 minutes

Inclination: 89.0856 deg

SMA: 7203.857 km

Apoapsis: 861.174 km

Periapsis: 790.271 km

RAAN: 323.0177 deg

Eccentricy: 0.0049212

Argument of periapsis: 41.0259 deg

Mean anomaly: 319.4615 deg

Mean motion: 14.19891327 rev/day

Mean motion (dot): 0.00001069 rev/day2

B* drag term: 0.00049144 1/REarth

Two-line elements (TLE)

Creation date: May 9, 2025, 2:46 a.m.

Reference frame: TEME

Reference center: EARTH

Epoch: May 8, 2025, 1:24 p.m. UTC

TLE line 0: 0 CZ-6A DEB

TLE line 1: 1 60960U 24140LK 25128.55869917 .00001069 00000-0 49144-3 0 9991

TLE line 2: 2 60960 89.0856 323.0177 0049212 41.0259 319.4615 14.19891327 37151

Live tracking on map

Real-time ground track for satellite CZ-6A DEB.

In-orbit conjunctions

A list of the most updated potential collisions computed for object CZ-6A DEB.

Target Orbit TCA Probability of collision Miss distance Type
SL-3 DEB LEO 2025-03-17 01:25:29 0.0002473826 133.0 (m) DEBRIS
CZ-6A DEB SSO 2025-02-23 02:44:42 0.0001231641 869.0 (m) DEBRIS
MINOTAUR R/B SSO 2025-02-21 00:50:24 0.0002563563 394.0 (m) ROCKET BODY
FENGYUN 1C DEB SSO 2025-01-06 22:02:44 0.0002198535 924.0 (m) DEBRIS
FENGYUN 1C DEB SSO 2024-12-23 16:17:53 0.000184204 514.0 (m) DEBRIS

Associated space launch

18 Low Earth Orbit communication satellites with Ku, Q and V band payloads for the G60 constellation operated by Shanghai Spacecom Satellite Technology (SSST) with funding backed by the Shanghai local government. Initial constellation will consist of 1296 satellites by 2027 with long term plans to expand it to 12000 satellites.

CZ-6A DEB was lifted into orbit during the mission ‘Long March 6A | G60 Polar Group 01’, on board a Long March 6A space rocket.

The launch took place on Aug. 6, 2024, 6:42 a.m. from Launch Complex 9A.

For more information about the launch, click the button.

Launch to space Long March 6A | G60 Polar Group 01
Long March 6A | G60 Polar Group 01

Agency: N/A

Status: Launch Successful

Launch date: Aug. 6, 2024, 6:42 a.m. UTC

Rocket: Long March 6A

Launch pad: Launch Complex 9A

Location: Taiyuan Satellite Launch Center, People's Republic of China

...

Latest news about this satellite

News about space launch
Brightness of first Chinese broadband constellation satellites alarms astronomers

The first satellites of a Chinese broadband constellation are significantly brighter than those of Western systems, posing a new challenge for astronomers.

News about space launch
Chinese rocket stage breaks up into cloud of more than 700 pieces of space debris

HELSINKI — A Chinese Long March 6A rocket’s upper stage has fragmented into a cloud of over 700 pieces of space debris, adding to concerns about long-term orbital safety. China […]

News about space launch
China's Thousand Sails Megaconstellation Kicks Off with Dangerous Debris Field

China's Thousand Sails Megaconstellation Kicks Off with Dangerous Debris Field


Newsletter sign-up

Weekly statistics, charts and insights to help you stay on top of the space industry.